Temperature
16 16 16 16 13 11 12 13 14 14 14 15 16 15 14 14 14 14 13 13 13 13 12 12 12 12 12 12 12 12 12 12 12 12 12 13 13 13 13 13 13 13 13 13 13 13 13 13 13
15 16 16 15 12 12 12 12 13 14 15 16 15 15 13 12 13 13 13 13 12 12 12 12 12 12 12 12 12 12 12 12 12 12 12 12 12 12 12 12 12 12 13 13 13 13 13 13 13
15 15 16 11 11 12 13 13 13 14 16 15 14 14 13 12 13 13 13 13 12 12 12 12 12 12 12 12 12 12 12 12 12 12 12 12 12 12 12 12 12 12 12 12 13 13 13 13 13
15 15 14 11 11 12 12 13 13 13 15 15 14 12 12 12 13 13 13 12 12 12 12 11 11 11 11 12 12 12 12 11 12 12 12 12 12 12 12 12 12 12 12 12 12 12 12 12 12
15 14 11 10 11 12 12 13 14 13 13 14 13 11 11 12 12 12 12 12 12 12 11 11 11 11 11 11 11 11 11 11 11 11 11 11 11 11 11 11 12 12 12 12 12 12 12 12 12
14 12 10 10 11 12 12 14 13 12 13 13 13 11 11 11 12 12 12 12 12 11 11 11 11 11 11 11 11 11 11 11 11 11 11 11 11 11 11 11 11 11 12 11 11 11 11 11 12
13 10 10 10 11 12 12 14 13 12 12 13 13 10 10 11 11 11 12 11 11 11 11 11 11 11 11 11 11 11 11 11 11 11 11 11 11 11 10 11 11 11 11 11 11 11 11 11 11
14 10 10 10 11 12 13 14 14 13 12 13 13 11 10 11 10 11 11 11 11 10 10 10 10 10 10 10 10 10 11 10 10 10 10 10 10 10 10 10 10 10 11 10 10 11 11 11 11
13 10 10 10 11 11 12 12 13 13 13 12 12 12 12 11 10 10 10 10 10 10 10 10 10 10 10 10 10 10 10 10 10 10 10 10 10 10 10 10 10 10 10 10 10 10 10 10 10
12 9 10 11 11 11 12 12 12 12 11 10 11 11 11 11 10 10 10 10 10 10 10 10 10 10 10 10 10 10 10 10 10 10 10 10 10 9 10 10 10 10 10 10 10 10 10 10 10
10 9 10 11 12 12 11 12 12 11 10 10 11 11 10 10 10 10 10 10 10 10 10 10 10 10 10 10 9 9 9 10 9 9 9 9 9 9 9 9 9 9 9 9 9 9 9 9 9
9 9 10 11 11 11 11 11 11 11 12 12 12 12 11 10 10 10 10 10 10 10 10 10 9 9 9 9 9 9 9 9 9 9 9 9 9 9 9 9 9 9 9 9 9 9 9 9 9
8 9 10 10 11 11 10 10 10 10 11 11 11 10 10 10 10 10 10 9 9 9 9 9 9 9 9 9 9 9 9 9 9 9 9 9 9 8 8 8 8 8 8 8 8 8 8 8 8
9 9 9 10 10 10 9 9 9 9 10 10 10 10 10 10 10 9 9 9 9 9 9 9 9 9 9 9 9 9 8 8 8 8 8 8 8 8 8 8 8 8 8 8 8 8 8 8 8
9 8 8 9 9 9 9 8 7 9 10 9 9 9 9 9 9 9 10 9 9 9 9 9 9 8 9 8 8 8 8 8 8 8 8 8 7 7 7 7 7 7 7 7 7 7 7 7 7
8 8 8 8 8 8 8 8 8 9 9 8 8 8 8 9 9 9 9 9 9 9 8 8 8 8 8 8 8 8 8 8 8 7 7 7 7 7 7 7 7 7 7 7 7 7 7 7 7
7 7 7 8 8 8 7 7 7 8 8 8 8 8 8 8 9 9 9 9 9 8 8 8 8 8 8 8 7 7 7 7 7 7 7 7 7 6 6 6 6 6 6 6 6 6 6 6 6
7 7 7 8 8 7 6 6 7 8 7 7 7 7 7 8 8 9 9 8 8 8 8 8 7 7 7 7 7 7 7 7 7 6 6 6 6 6 6 6 6 6 6 6 5 5 5 5 5
7 7 7 7 7 7 6 6 6 7 6 6 6 6 7 7 8 8 8 8 8 7 7 7 7 7 7 6 7 6 6 6 6 6 6 6 6 5 5 5 5 5 5 5 5 5 5 5 4
7 7 7 7 7 7 6 6 6 6 5 6 6 6 6 7 7 7 7 7 7 7 7 7 7 7 6 6 6 6 6 6 6 6 5 5 5 5 5 5 5 5 5 4 4 4 4 4 4
7 7 6 7 6 6 6 6 6 6 6 6 6 6 6 6 6 6 7 7 7 7 7 7 6 6 6 6 6 6 5 5 5 5 5 5 5 5 5 5 4 4 4 4 4 4 4 4 3
6 6 6 6 6 5 6 5 6 5 5 5 4 5 5 5 5 6 6 6 6 6 6 6 6 6 5 5 5 5 5 5 5 5 4 4 4 4 4 4 4 4 4 3 3 3 3 3 3
6 6 6 6 5 4 4 4 5 5 5 5 4 4 4 5 5 5 5 6 6 6 6 6 5 5 5 5 5 5 5 5 5 4 4 4 4 3 3 3 3 3 3 3 3 3 3 2 2
5 5 5 4 4 5 4 4 4 4 5 5 4 4 4 4 5 5 5 5 5 5 5 5 5 5 4 4 4 4 4 4 4 4 4 3 3 3 3 3 3 3 2 2 2 2 2 2 2
5 4 4 5 4 4 4 4 4 4 4 4 4 4 4 4 4 4 4 4 4 4 4 4 4 4 4 4 4 4 4 3 3 3 3 3 3 3 2 2 2 2 2 2 2 1 1 1 1
4 4 4 5 5 4 4 4 4 3 3 3 4 4 4 3 4 4 4 4 4 4 4 3 4 3 3 3 3 3 3 3 3 3 2 2 2 2 2 2 2 1 1 1 1 1 1 1 1
4 3 4 3 3 3 4 3 3 3 2 2 2 2 2 3 3 3 3 3 3 3 3 3 3 3 3 3 2 2 2 2 2 2 2 2 2 2 1 1 1 1 1 1 0 0 0 -0 -0
3 3 2 3 4 4 4 3 3 2 1 1 0 1 1 2 2 2 2 2 2 2 2 2 2 2 2 2 2 2 1 1 1 1 1 1 1 1 1 1 1 0 0 -0 -0 -0 -1 -1 -1
3 3 3 2 3 3 3 3 2 1 1 0 -0 1 1 1 1 1 1 2 2 2 2 2 2 1 1 1 1 1 1 1 0 0 0 0 0 0 0 -0 -0 -0 -0 -1 -1 -1 -1 -1 -1
2 2 2 2 2 1 2 2 1 -0 -0 -0 -0 0 1 1 1 1 1 1 1 1 1 1 1 1 1 1 1 0 0 0 -0 -0 -0 -0 -0 -1 -1 -1 -1 -1 -1 -1 -1 -1 -2 -2 -2
Wind_Speed
6 4 3 4 5 3 4 5 3 2 2 2 1 4 6 4 4 4 4 8 11 10 9 11 13 13 13 13 13 13 13 13 13 13 14 14 14 15 15 15 16 16 16 16 16 16 16 16 17
3 2 4 4 4 3 5 5 5 6 5 3 2 3 5 3 2 6 5 8 12 11 10 11 14 14 14 14 14 14 13 13 13 13 14 15 15 15 15 15 16 16 16 16 16 16 16 16 17
1 2 4 4 4 7 7 5 8 5 3 2 2 3 3 4 4 5 6 12 12 10 10 12 15 15 15 15 14 14 13 13 13 14 14 15 15 15 15 16 15 15 15 15 15 15 16 16 16
3 4 4 3 6 6 6 5 5 4 1 1 4 3 2 1 4 6 10 13 13 10 11 13 15 15 15 15 14 14 14 13 13 14 14 15 15 15 16 16 15 15 15 15 15 15 16 16 17
3 4 2 3 7 4 4 4 3 3 2 1 4 4 1 3 4 10 12 13 13 10 11 13 15 15 15 15 14 14 14 14 13 14 14 14 15 15 15 15 15 15 14 14 15 16 16 16 17
3 3 3 7 7 4 4 5 3 2 2 2 4 5 2 0 6 10 11 11 12 11 10 12 15 15 15 15 15 15 15 14 14 14 14 14 14 14 15 15 15 15 14 14 15 15 15 16 16
4 4 5 6 6 6 6 4 4 4 3 3 5 6 3 2 4 8 10 11 11 11 10 10 12 13 14 14 15 15 15 15 14 14 14 14 14 14 14 15 14 14 14 14 14 15 15 15 16
4 4 3 5 6 6 4 3 3 5 4 1 4 8 6 6 6 8 10 9 9 9 9 9 10 11 12 13 14 15 14 14 14 14 14 14 13 13 14 14 14 14 14 14 14 15 15 15 15
3 2 6 8 7 5 3 2 1 1 3 2 2 2 4 10 9 10 9 8 8 8 7 8 9 10 11 12 13 13 14 14 14 13 14 13 12 12 13 13 13 14 14 14 15 15 15 15 15
3 6 9 5 4 5 3 3 3 3 2 1 2 4 8 11 11 11 11 12 11 10 8 7 8 9 10 10 11 11 11 12 12 12 12 12 12 11 12 12 13 13 13 14 14 14 14 14 13
3 6 5 4 3 3 3 2 3 6 5 7 7 9 11 10 10 11 10 11 11 10 9 7 8 9 9 8 9 9 10 10 10 11 11 11 11 10 10 10 11 12 12 12 12 12 11 11 11
3 4 5 3 2 2 3 3 3 5 7 5 9 14 14 13 12 12 11 9 9 9 9 8 9 9 9 9 8 8 8 8 8 9 10 10 8 8 8 8 9 9 9 10 10 9 10 11 11
5 4 4 3 2 2 2 3 3 5 4 4 8 12 14 13 11 9 8 9 9 9 9 8 9 10 9 9 8 8 7 7 8 8 9 9 7 6 7 7 8 8 9 9 8 8 9 9 9
4 3 4 3 3 3 3 4 3 6 3 6 9 11 12 13 11 9 8 9 10 10 10 8 9 10 10 8 7 7 7 8 8 8 8 9 8 7 7 6 7 7 8 8 8 8 7 7 8
1 2 4 5 4 3 2 5 7 7 5 7 8 9 9 10 10 11 11 11 11 10 10 9 9 10 10 9 8 8 8 8 7 7 8 9 9 8 7 6 5 6 8 9 9 9 8 7 7
0 2 4 6 5 4 4 9 5 4 6 7 8 8 8 9 10 10 10 10 10 10 10 10 9 9 10 9 8 7 8 8 7 7 8 8 9 9 8 6 5 7 8 8 6 5 4 5 4
1 4 6 6 5 4 5 8 5 2 6 7 7 7 7 7 7 8 9 10 10 11 11 10 9 9 9 9 8 7 7 7 7 7 7 7 8 9 8 6 6 8 7 6 5 4 3 4 4
5 5 5 6 3 4 6 8 6 4 6 7 6 5 6 7 8 8 8 9 9 9 10 11 9 9 9 8 7 6 5 5 6 6 6 8 8 8 8 7 6 7 5 4 4 4 3 3 3
4 5 5 5 3 4 6 9 9 5 5 6 6 5 6 7 5 6 7 8 8 8 10 11 10 9 8 7 6 5 4 4 4 4 6 7 8 8 8 6 6 6 4 4 4 4 4 3 2
5 6 5 3 2 3 4 8 7 5 5 6 6 6 6 4 3 5 6 7 9 10 10 11 11 10 8 6 4 4 4 3 3 3 5 6 6 7 7 6 5 5 4 4 4 4 2 2 2
6 6 5 4 2 2 3 6 4 3 3 3 3 4 5 6 6 6 6 7 8 10 11 10 10 10 8 7 5 5 4 3 2 2 2 4 6 7 7 7 6 5 4 4 3 3 4 2 1
7 5 4 3 1 3 2 4 5 4 3 2 3 2 3 4 5 5 6 7 8 9 9 9 10 9 9 9 9 9 7 5 4 4 3 4 5 6 7 7 7 5 4 4 3 3 2 3 1
5 3 3 3 3 2 2 3 7 2 3 4 3 3 2 3 4 5 6 6 6 6 8 8 9 9 9 8 9 9 6 4 4 5 5 3 3 5 6 6 6 5 4 4 3 3 3 2 2
1 1 1 2 2 4 6 5 6 2 4 4 2 2 2 2 3 3 4 4 4 5 6 7 9 8 9 9 8 9 8 8 8 7 6 4 3 3 4 5 6 5 4 4 3 3 3 2 2
1 3 1 2 1 6 3 4 5 4 3 3 3 3 2 2 3 3 4 4 5 5 6 7 9 8 8 9 8 8 8 8 9 8 7 6 4 3 3 4 4 4 4 5 5 3 3 3 3
3 4 5 4 4 4 2 5 4 2 3 2 1 2 2 2 2 3 4 4 5 5 6 7 8 8 8 8 8 7 7 6 6 6 6 6 5 4 4 4 5 5 5 5 5 3 2 3 2
2 3 3 3 1 2 4 3 4 2 4 4 3 2 1 1 2 2 2 3 4 4 6 7 8 8 8 8 7 7 7 6 6 5 5 4 4 4 5 5 5 5 5 5 5 3 3 3 2
2 3 2 3 2 4 4 3 3 3 3 2 1 1 1 0 1 1 2 2 2 3 3 5 6 7 6 7 7 6 6 6 6 6 5 5 5 5 5 5 5 4 4 5 4 4 3 3 2
1 2 2 2 3 3 3 4 1 2 2 2 3 2 1 1 1 1 1 1 2 2 3 4 5 6 6 6 6 6 6 6 6 5 5 5 5 5 6 6 5 5 5 5 4 4 4 4 2
2 3 3 3 3 2 2 4 2 1 2 1 2 2 1 1 1 2 2 3 2 2 2 3 4 5 5 6 6 6 6 6 6 5 5 5 5 4 5 5 5 5 5 5 5 5 4 4 3
Wind_Direction
317 354 74 63 65 67 223 233 208 199 203 211 159 123 127 127 144 160 148 140 131 135 140 140 134 127 121 114 108 103 98 94 90 86 82 77 77 77 76 74 73 71 70 70 70 70 69 70 72
340 39 62 70 119 193 241 225 216 224 193 156 83 99 99 110 95 117 133 139 131 132 134 139 134 128 123 117 112 107 102 97 94 89 84 80 79 78 76 75 73 72 71 72 71 70 70 70 71
346 90 95 101 160 197 212 211 208 223 221 175 101 52 111 141 140 150 153 137 126 125 130 139 134 129 124 119 114 109 104 100 96 93 88 83 81 79 76 75 75 74 73 73 72 70 70 70 70
78 65 69 123 216 223 202 210 188 176 247 131 134 96 66 30 165 154 139 132 128 125 129 138 134 130 125 120 115 111 106 102 100 97 91 86 83 80 76 75 76 75 75 75 74 72 70 69 70
69 97 119 220 232 240 220 220 192 191 196 164 135 137 129 339 111 130 135 134 134 128 126 135 134 133 128 124 119 114 109 105 102 99 94 89 85 81 78 77 76 76 77 78 76 74 72 70 70
80 96 159 216 227 236 230 214 192 200 201 155 130 139 167 352 120 136 134 132 130 127 122 128 132 130 129 126 121 115 111 106 102 98 94 90 88 84 80 77 75 75 77 78 78 76 73 72 70
139 142 194 204 214 229 221 206 185 195 207 201 153 142 166 212 151 133 128 125 124 122 118 116 121 125 126 123 119 115 110 106 101 98 93 90 88 85 81 77 74 73 76 78 76 76 74 72 71
145 140 198 204 207 228 206 187 190 180 199 148 126 151 185 193 154 124 120 119 123 122 119 114 117 118 117 118 118 115 110 105 101 96 91 87 85 85 82 77 76 75 73 75 74 73 73 71 70
121 156 211 209 201 211 199 180 239 124 127 76 61 165 171 142 134 126 126 125 134 135 130 121 118 117 116 118 118 113 108 103 99 95 92 86 81 80 79 77 78 77 73 72 73 72 69 67 66
141 201 220 217 197 183 202 200 185 132 136 133 43 48 120 137 143 145 153 155 156 155 149 133 127 124 120 119 112 105 102 100 96 94 92 88 84 82 81 77 77 76 72 70 69 68 65 63 61
169 204 219 246 239 194 201 218 190 159 208 205 183 163 151 152 155 160 166 165 163 160 153 145 137 132 125 117 113 105 103 101 98 97 96 94 88 82 76 75 71 69 66 64 63 61 61 62 61
198 236 220 243 252 224 216 198 216 209 221 203 176 162 161 166 173 175 172 169 160 156 156 150 144 136 130 124 120 115 109 105 101 102 103 98 88 80 76 72 71 68 66 65 64 65 62 62 60
233 247 253 243 236 234 239 239 230 254 248 148 146 156 168 174 179 182 172 165 160 162 159 158 150 145 136 127 126 122 117 116 113 110 109 109 98 89 84 78 76 73 71 69 66 67 64 62 59
213 233 261 263 251 235 220 263 246 249 193 151 160 175 180 180 179 175 174 175 173 170 165 159 157 150 140 136 131 128 126 124 119 115 116 115 109 101 95 85 78 75 75 72 71 70 66 62 62
216 269 286 256 239 229 187 273 240 233 179 174 184 190 190 189 182 185 187 184 180 174 167 164 160 151 146 142 138 133 130 128 122 122 122 119 115 110 103 92 81 79 82 77 74 69 67 65 61
144 254 261 253 222 220 188 253 259 214 187 200 200 198 198 199 195 193 188 183 175 169 169 168 163 156 152 144 138 135 132 129 126 129 126 123 121 118 108 98 88 90 87 81 78 73 70 59 51
248 235 241 255 213 189 199 248 266 221 199 213 208 202 201 203 204 197 188 184 175 172 168 167 164 159 153 143 135 131 128 127 128 130 128 127 125 124 115 105 102 100 89 80 82 73 75 72 57
221 226 239 236 210 177 219 250 266 239 217 219 216 206 203 206 211 197 185 179 171 167 164 165 161 157 148 138 129 122 117 117 123 124 132 131 130 128 120 112 107 104 94 84 89 89 74 78 68
214 215 241 246 206 196 237 260 267 255 232 223 220 212 212 217 214 185 174 166 163 164 165 166 158 156 152 151 152 149 154 145 124 118 124 129 130 130 125 116 109 106 105 106 109 110 90 65 63
231 235 249 273 222 214 259 268 265 249 233 217 210 213 213 208 186 174 167 166 171 173 172 166 163 162 163 160 158 151 144 137 123 116 114 122 129 129 129 119 115 111 108 108 112 113 93 69 35
237 225 231 240 315 268 276 288 272 263 237 229 215 212 210 199 194 183 176 178 175 176 174 172 170 166 161 148 134 126 112 107 121 133 124 118 131 126 124 123 120 118 119 134 135 127 114 122 26
239 238 227 219 185 268 215 275 273 262 280 266 251 229 219 206 195 182 176 179 185 184 172 167 166 164 160 155 156 157 161 163 169 160 143 115 127 127 130 130 126 125 123 132 142 105 114 128 118
221 232 228 214 194 260 239 227 283 274 272 269 248 229 226 211 190 179 176 179 178 173 169 166 163 162 160 162 165 163 163 156 143 140 135 132 118 129 136 137 131 130 128 128 123 109 109 117 129
205 67 34 46 122 250 223 195 278 264 255 272 252 222 214 206 180 169 157 146 143 149 157 159 161 164 164 164 166 167 165 159 152 155 157 157 142 122 135 138 133 134 133 135 133 123 115 112 107
90 103 33 328 261 247 199 191 253 275 286 247 222 210 195 172 155 146 144 149 151 153 160 163 164 167 167 165 168 168 167 165 167 167 169 163 157 157 158 145 138 137 141 140 132 119 120 121 121
214 161 172 209 226 266 227 217 247 316 342 360 46 172 130 143 150 153 165 165 163 165 166 165 169 169 165 166 168 164 160 165 170 170 170 169 169 167 155 148 144 144 142 138 129 118 120 111 123
181 206 189 158 216 245 247 267 294 16 11 24 38 57 64 191 168 159 156 160 163 173 176 172 170 167 166 166 162 161 160 163 164 160 159 163 159 155 148 149 147 146 142 139 133 127 129 120 126
169 164 107 149 190 241 256 247 261 302 307 327 345 326 304 356 124 137 149 154 162 171 169 160 166 165 162 160 161 161 161 162 158 155 160 162 159 155 152 152 150 147 143 141 133 131 128 128 129
128 160 170 167 186 193 236 262 267 251 278 256 254 249 228 187 145 125 111 115 108 112 134 143 150 152 154 155 153 152 155 155 153 156 162 160 154 154 160 161 158 155 154 149 144 147 145 143 139
158 174 156 174 235 206 204 258 323 336 326 301 271 277 267 179 108 99 91 84 89 100 118 137 146 153 157 154 150 153 151 150 153 159 164 155 153 155 160 160 159 162 161 158 160 166 162 160 164
Height
1503 1504 1506 1508 1512 1522 1522 1516 1510 1508 1508 1506 1506 1505 1507 1510 1513 1519 1516 1516 1518 1520 1523 1525 1527 1528 1529 1530 1531 1531 1532 1532 1532 1532 1532 1532 1532 1532 1533 1533 1533 1533 1533 1533 1534 1534 1535 1535 1536
1502 1504 1507 1507 1516 1525 1520 1512 1509 1505 1504 1505 1505 1506 1506 1509 1510 1512 1513 1515 1518 1520 1522 1524 1526 1527 1529 1530 1530 1531 1532 1532 1532 1533 1533 1532 1533 1533 1533 1533 1533 1533 1534 1534 1534 1535 1535 1536 1536
1501 1503 1505 1508 1516 1517 1513 1507 1504 1503 1503 1504 1505 1506 1507 1508 1509 1511 1512 1515 1518 1520 1522 1524 1526 1527 1528 1529 1530 1531 1532 1532 1532 1533 1533 1533 1533 1533 1533 1533 1534 1534 1534 1534 1535 1536 1536 1537 1537
1501 1503 1504 1511 1512 1508 1504 1502 1501 1502 1502 1503 1504 1506 1507 1509 1509 1511 1512 1514 1517 1519 1522 1523 1525 1527 1528 1529 1530 1531 1531 1532 1532 1533 1533 1533 1533 1533 1533 1534 1534 1534 1534 1535 1535 1536 1537 1537 1538
1499 1501 1507 1512 1508 1504 1501 1500 1500 1501 1501 1502 1503 1505 1507 1509 1509 1510 1512 1514 1516 1518 1521 1523 1525 1526 1527 1529 1529 1530 1531 1531 1532 1532 1533 1533 1534 1534 1534 1534 1534 1535 1535 1535 1536 1536 1537 1538 1538
1498 1499 1510 1510 1505 1502 1500 1499 1500 1501 1501 1502 1503 1504 1506 1508 1509 1510 1512 1514 1516 1518 1520 1523 1524 1526 1527 1528 1529 1530 1531 1531 1532 1532 1533 1533 1533 1534 1534 1534 1535 1535 1535 1535 1536 1536 1537 1538 1538
1497 1501 1505 1505 1504 1501 1499 1498 1499 1499 1500 1501 1501 1503 1505 1507 1508 1509 1511 1514 1516 1518 1520 1522 1524 1526 1527 1528 1529 1530 1530 1531 1532 1532 1533 1533 1533 1534 1534 1535 1535 1535 1535 1535 1535 1536 1537 1538 1538
1494 1498 1501 1502 1501 1498 1496 1496 1496 1497 1498 1500 1501 1501 1503 1505 1507 1509 1511 1513 1515 1518 1520 1521 1523 1525 1526 1528 1529 1530 1530 1531 1532 1532 1533 1533 1534 1534 1534 1534 1535 1535 1535 1535 1535 1536 1537 1538 1538
1492 1499 1499 1497 1496 1495 1493 1494 1495 1496 1497 1498 1499 1499 1500 1502 1505 1507 1510 1512 1515 1517 1519 1521 1522 1524 1526 1527 1528 1529 1530 1531 1532 1532 1533 1533 1534 1534 1534 1535 1535 1535 1535 1535 1535 1536 1537 1537 1538
1490 1496 1492 1490 1490 1491 1492 1492 1494 1495 1495 1496 1497 1497 1499 1501 1503 1504 1506 1509 1512 1514 1517 1519 1521 1523 1524 1526 1527 1528 1529 1530 1531 1532 1533 1533 1533 1534 1534 1534 1535 1535 1535 1535 1536 1536 1537 1537 1538
1488 1490 1488 1488 1488 1489 1490 1491 1492 1493 1495 1493 1493 1495 1497 1499 1501 1503 1504 1506 1509 1512 1515 1518 1520 1522 1523 1525 1526 1527 1529 1530 1531 1531 1532 1533 1533 1534 1534 1534 1534 1535 1535 1535 1535 1536 1537 1537 1538
1487 1487 1486 1486 1487 1488 1489 1489 1491 1490 1490 1491 1492 1493 1495 1497 1499 1500 1502 1505 1507 1510 1513 1515 1518 1520 1521 1523 1525 1526 1528 1529 1530 1530 1531 1532 1532 1533 1533 1533 1534 1534 1535 1535 1535 1536 1537 1537 1538
1487 1486 1485 1485 1486 1487 1488 1488 1489 1488 1488 1489 1490 1491 1493 1495 1497 1499 1501 1503 1505 1507 1510 1513 1515 1517 1519 1521 1523 1525 1526 1527 1528 1529 1530 1531 1531 1532 1532 1533 1533 1534 1534 1535 1535 1535 1536 1537 1537
1484 1485 1485 1485 1485 1486 1487 1487 1488 1484 1486 1487 1488 1489 1490 1492 1494 1496 1498 1500 1502 1505 1508 1510 1513 1515 1517 1519 1521 1523 1525 1526 1527 1528 1529 1530 1531 1531 1531 1532 1532 1533 1534 1534 1535 1535 1535 1536 1536
1484 1486 1485 1484 1484 1484 1486 1486 1484 1482 1484 1484 1485 1487 1488 1489 1491 1493 1495 1497 1499 1502 1505 1508 1511 1513 1515 1517 1519 1521 1523 1524 1526 1527 1528 1529 1530 1530 1531 1531 1531 1532 1533 1533 1534 1534 1535 1535 1536
1484 1487 1487 1483 1482 1483 1488 1485 1480 1481 1482 1482 1483 1484 1485 1487 1488 1490 1493 1495 1498 1500 1503 1505 1508 1510 1512 1514 1517 1519 1521 1522 1524 1525 1526 1527 1528 1529 1529 1530 1530 1531 1531 1532 1533 1533 1534 1534 1534
1486 1488 1485 1482 1481 1482 1485 1483 1479 1479 1479 1479 1480 1482 1483 1484 1485 1487 1490 1492 1494 1497 1500 1502 1505 1507 1509 1511 1514 1517 1519 1520 1522 1523 1524 1525 1526 1527 1528 1528 1529 1530 1530 1531 1531 1532 1532 1533 1533
1486 1485 1483 1482 1479 1482 1483 1481 1477 1477 1477 1477 1478 1479 1480 1480 1482 1484 1486 1489 1491 1494 1497 1499 1502 1504 1507 1509 1511 1514 1516 1518 1519 1521 1522 1523 1524 1525 1526 1527 1527 1528 1529 1529 1530 1530 1531 1532 1532
1480 1481 1480 1478 1478 1481 1481 1479 1476 1475 1474 1474 1475 1475 1476 1477 1479 1481 1483 1486 1488 1490 1493 1496 1499 1501 1503 1505 1507 1509 1512 1514 1516 1518 1519 1520 1522 1523 1524 1525 1526 1526 1527 1528 1528 1529 1529 1530 1530
1479 1480 1480 1478 1477 1479 1480 1477 1473 1472 1471 1471 1471 1472 1473 1475 1476 1477 1479 1482 1484 1487 1489 1493 1495 1498 1500 1502 1504 1507 1509 1511 1513 1516 1517 1518 1519 1521 1522 1523 1524 1524 1525 1526 1526 1527 1527 1528 1529
1477 1478 1478 1478 1478 1478 1480 1476 1471 1469 1468 1468 1469 1470 1471 1472 1473 1474 1476 1478 1481 1483 1486 1489 1492 1495 1498 1499 1502 1504 1507 1508 1510 1512 1514 1516 1518 1518 1519 1521 1522 1523 1524 1524 1525 1525 1525 1526 1527
1476 1475 1476 1477 1481 1484 1481 1483 1471 1469 1467 1467 1467 1467 1468 1469 1470 1471 1473 1475 1477 1480 1483 1486 1489 1492 1495 1497 1498 1500 1502 1504 1506 1508 1510 1512 1515 1516 1517 1519 1520 1521 1522 1522 1523 1523 1524 1525 1525
1473 1473 1475 1476 1480 1484 1483 1485 1474 1469 1467 1466 1465 1465 1466 1466 1468 1469 1470 1473 1475 1478 1481 1483 1486 1489 1491 1494 1496 1498 1500 1502 1504 1506 1508 1510 1511 1513 1515 1516 1517 1518 1519 1520 1521 1522 1522 1523 1524
1473 1475 1476 1480 1483 1484 1480 1485 1475 1471 1466 1464 1464 1464 1464 1465 1466 1467 1469 1471 1473 1476 1478 1481 1483 1486 1488 1490 1492 1495 1497 1499 1501 1503 1505 1507 1509 1510 1512 1514 1515 1516 1517 1518 1519 1520 1520 1521 1522
1474 1479 1484 1483 1484 1480 1477 1479 1475 1467 1465 1463 1463 1463 1464 1464 1465 1466 1467 1469 1471 1473 1475 1478 1480 1483 1485 1487 1489 1491 1494 1496 1498 1500 1502 1504 1505 1507 1509 1511 1512 1513 1514 1516 1517 1518 1518 1519 1519
1476 1476 1482 1482 1481 1480 1477 1476 1471 1466 1464 1462 1462 1463 1464 1464 1464 1465 1466 1468 1470 1471 1473 1475 1478 1480 1482 1484 1486 1489 1491 1493 1496 1498 1500 1501 1503 1505 1507 1508 1509 1511 1512 1513 1514 1515 1516 1517 1517
1476 1477 1476 1481 1483 1483 1477 1474 1469 1466 1464 1463 1463 1463 1463 1464 1464 1465 1466 1467 1469 1470 1472 1473 1475 1477 1480 1482 1484 1486 1488 1490 1492 1494 1497 1498 1500 1502 1504 1505 1507 1508 1509 1510 1511 1512 1513 1514 1515
1474 1475 1480 1481 1479 1477 1475 1475 1472 1468 1466 1465 1463 1463 1463 1463 1464 1465 1466 1466 1468 1469 1470 1472 1474 1476 1478 1480 1481 1483 1485 1488 1490 1492 1494 1495 1497 1499 1501 1502 1504 1505 1506 1507 1508 1510 1511 1511 1512
1476 1477 1477 1479 1479 1477 1477 1477 1470 1468 1466 1465 1464 1463 1463 1463 1463 1464 1465 1466 1467 1468 1469 1470 1472 1474 1475 1477 1479 1481 1483 1485 1487 1489 1491 1492 1494 1496 1498 1499 1500 1502 1503 1504 1505 1507 1508 1508 1509
1474 1475 1478 1479 1480 1481 1479 1481 1469 1468 1466 1465 1464 1463 1463 1463 1463 1463 1464 1465 1466 1467 1468 1469 1470 1472 1473 1475 1477 1479 1481 1483 1484 1486 1488 1489 1491 1493 1495 1496 1497 1499 1500 1501 1503 1504 1505 1506 1506